| time (UTC) | temp C | wind direction | speed KPH | gust KPH | rain 1hr cm | rain 24hr cm | rain mn cm | humidity % | barometer mb |
| 20260506232317 | 5 | 0 | 0.0 | 0.0 | 0.00 | 0.00 | 0.00 | 86 | |
| 20260506231816 | 5 | 0 | 0.0 | 0.0 | 0.00 | 0.00 | 0.00 | 86 | |
| 20260506231316 | 5 | 0 | 0.0 | 0.0 | 0.00 | 0.00 | 0.00 | 87 | |
| 20260506230816 | 5 | 0 | 0.0 | 0.0 | 0.00 | 0.00 | 0.00 | 86 | |
| 20260506230316 | 5 | 0 | 0.0 | 0.0 | 0.00 | 0.00 | 0.00 | 86 | |
| 20260506225815 | 5 | 0 | 0.0 | 0.0 | 0.00 | 0.00 | 0.00 | 86 | |
| 20260506225315 | 5 | 224 | 0.0 | 3.2 | 0.00 | 0.00 | 0.20 | 85 | |
| 20260506224815 | 5 | 0 | 0.0 | 0.0 | 0.00 | 0.00 | 0.20 | 86 | |
| 20260506224315 | 5 | 0 | 0.0 | 0.0 | 0.00 | 0.00 | 0.20 | 85 | |
| 20260506223814 | 5 | 0 | 0.0 | 0.0 | 0.00 | 0.00 | 0.20 | 85 | |
| 20260506223314 | 5 | 0 | 0.0 | 0.0 | 0.00 | 0.00 | 0.20 | 84 | |
| 20260506222313 | 5 | 0 | 0.0 | 0.0 | 0.00 | 0.00 | 0.20 | 84 | |
| 20260506221813 | 5 | 0 | 0.0 | 0.0 | 0.00 | 0.00 | 0.20 | 84 | |
| 20260506221313 | 5 | 0 | 0.0 | 0.0 | 0.00 | 0.00 | 0.20 | 84 | |
| 20260506220812 | 5 | 0 | 0.0 | 0.0 | 0.00 | 0.00 | 0.20 | 84 | |
| 20260506220312 | 5 | 0 | 0.0 | 0.0 | 0.00 | 0.00 | 0.20 | 84 | |
| 20260506215312 | 5 | 0 | 0.0 | 0.0 | 0.00 | 0.00 | 0.20 | 84 | |
| 20260506214811 | 5 | 0 | 0.0 | 0.0 | 0.00 | 0.00 | 0.20 | 84 | |
| 20260506213811 | 5 | 0 | 0.0 | 0.0 | 0.00 | 0.00 | 0.20 | 83 | |
| 20260506213310 | 5 | 0 | 0.0 | 0.0 | 0.00 | 0.00 | 0.20 | 83 | |
| 20260506212310 | 5 | 0 | 0.0 | 0.0 | 0.00 | 0.00 | 0.20 | 83 | |
| 20260506210809 | 5 | 0 | 0.0 | 0.0 | 0.00 | 0.00 | 0.20 | 83 | |
| 20260506210309 | 6 | 0 | 0.0 | 0.0 | 0.00 | 0.00 | 0.20 | 83 | |
| 20260506205808 | 6 | 0 | 0.0 | 0.0 | 0.00 | 0.00 | 0.20 | 83 | |
| 20260506205308 | 6 | 0 | 0.0 | 0.0 | 0.00 | 0.00 | 0.20 | 83 | |
| 20260506204308 | 6 | 0 | 0.0 | 0.0 | 0.00 | 0.00 | 0.20 | 84 | |
| 20260506203307 | 6 | 0 | 0.0 | 0.0 | 0.00 | 0.00 | 0.20 | 85 | |
| 20260506202807 | 6 | 0 | 0.0 | 0.0 | 0.00 | 0.00 | 0.20 | 84 | |
| 20260506202307 | 6 | 283 | 1.6 | 4.8 | 0.00 | 0.00 | 0.20 | 84 | |
| 20260506201306 | 7 | 0 | 0.0 | 0.0 | 0.00 | 0.00 | 0.20 | 84 | |
| 20260506200806 | 7 | 0 | 0.0 | 0.0 | 0.00 | 0.00 | 0.20 | 84 | |
| 20260506195805 | 7 | 0 | 0.0 | 0.0 | 0.00 | 0.00 | 0.20 | 84 | |
| 20260506195306 | 7 | 0 | 0.0 | 0.0 | 0.00 | 0.00 | 0.20 | 84 | |
| 20260506194804 | 7 | 0 | 0.0 | 0.0 | 0.00 | 0.00 | 0.20 | 84 | |
| 20260506193804 | 7 | 0 | 0.0 | 0.0 | 0.00 | 0.00 | 0.20 | 84 | |
| 20260506193304 | 7 | 0 | 0.0 | 0.0 | 0.00 | 0.00 | 0.20 | 84 | |
| 20260506192803 | 7 | 0 | 0.0 | 0.0 | 0.00 | 0.00 | 0.20 | 84 | |
| 20260506192305 | 7 | 0 | 0.0 | 0.0 | 0.00 | 0.00 | 0.20 | 83 | |
| 20260506191803 | 7 | 0 | 0.0 | 0.0 | 0.00 | 0.00 | 0.20 | 83 | |
| 20260506190802 | 7 | 0 | 0.0 | 0.0 | 0.00 | 0.00 | 0.20 | 83 | |
| 20260506190302 | 7 | 0 | 0.0 | 0.0 | 0.00 | 0.00 | 0.20 | 83 | |
| 20260506185802 | 8 | 0 | 0.0 | 0.0 | 0.00 | 0.00 | 0.20 | 83 | |
| 20260506185301 | 7 | 0 | 0.0 | 0.0 | 0.00 | 0.00 | 0.20 | 83 | |
| 20260506184801 | 7 | 0 | 0.0 | 0.0 | 0.00 | 0.00 | 0.20 | 83 | |
| 20260506184301 | 7 | 0 | 0.0 | 0.0 | 0.00 | 0.00 | 0.20 | 83 | |
| 20260506183801 | 8 | 0 | 0.0 | 0.0 | 0.00 | 0.00 | 0.20 | 83 | |
| 20260506183300 | 8 | 0 | 0.0 | 0.0 | 0.00 | 0.00 | 0.20 | 83 | |
| 20260506182800 | 8 | 0 | 0.0 | 0.0 | 0.00 | 0.00 | 0.20 | 83 | |
| 20260506182259 | 8 | 0 | 0.0 | 0.0 | 0.00 | 0.00 | 0.20 | 83 | |
| 20260506181759 | 8 | 0 | 0.0 | 0.0 | 0.00 | 0.00 | 0.20 | 82 | |
| 20260506181259 | 8 | 0 | 0.0 | 0.0 | 0.00 | 0.00 | 0.20 | 83 | |
| 20260506180759 | 8 | 0 | 0.0 | 0.0 | 0.00 | 0.00 | 0.20 | 83 | |
| 20260506180258 | 8 | 0 | 0.0 | 0.0 | 0.00 | 0.00 | 0.20 | 83 | |
| 20260506175758 | 8 | 0 | 0.0 | 0.0 | 0.00 | 0.00 | 0.20 | 82 | |
| 20260506175258 | 8 | 0 | 0.0 | 0.0 | 0.00 | 0.00 | 0.20 | 82 | |
| 20260506174757 | 8 | 0 | 0.0 | 0.0 | 0.00 | 0.00 | 0.20 | 82 | |
| 20260506174257 | 8 | 0 | 0.0 | 0.0 | 0.00 | 0.00 | 0.20 | 81 | |
| 20260506173256 | 8 | 0 | 0.0 | 0.0 | 0.00 | 0.00 | 0.20 | 82 | |
| 20260506172756 | 9 | 0 | 0.0 | 0.0 | 0.00 | 0.00 | 0.20 | 81 | |
| 20260506172256 | 9 | 319 | 0.0 | 1.6 | 0.00 | 0.00 | 0.20 | 82 | |
| 20260506171756 | 9 | 0 | 0.0 | 0.0 | 0.00 | 0.00 | 0.20 | 81 | |
| 20260506171255 | 9 | 0 | 0.0 | 0.0 | 0.00 | 0.00 | 0.20 | 82 | |
| 20260506170755 | 9 | 0 | 0.0 | 0.0 | 0.00 | 0.00 | 0.20 | 82 | |
| 20260506170255 | 9 | 0 | 0.0 | 0.0 | 0.00 | 0.00 | 0.20 | 82 | |
| 20260506165755 | 9 | 0 | 0.0 | 0.0 | 0.00 | 0.00 | 0.20 | 82 | |
| 20260506165254 | 9 | 0 | 0.0 | 0.0 | 0.00 | 0.00 | 0.20 | 82 | |
| 20260506164754 | 8 | 0 | 0.0 | 0.0 | 0.00 | 0.00 | 0.20 | 82 | |
| 20260506164254 | 8 | 0 | 0.0 | 0.0 | 0.00 | 0.00 | 0.20 | 81 | |
| 20260506162253 | 9 | 20 | 4.8 | 9.7 | 0.00 | 0.00 | 0.20 | 80 | |
| 20260506161752 | 9 | 294 | 3.2 | 6.4 | 0.00 | 0.00 | 0.20 | 82 | |
| 20260506161252 | 9 | 264 | 0.0 | 9.7 | 0.00 | 0.00 | 0.20 | 81 | |
| 20260506160752 | 9 | 0 | 0.0 | 0.0 | 0.00 | 0.00 | 0.20 | 82 | |
| 20260506160251 | 9 | 0 | 0.0 | 0.0 | 0.00 | 0.00 | 0.20 | 82 | |
| 20260506154751 | 9 | 0 | 0.0 | 0.0 | 0.00 | 0.00 | 0.20 | 81 | |
| 20260506154250 | 9 | 297 | 0.0 | 1.6 | 0.00 | 0.00 | 0.20 | 81 | |
| 20260506153250 | 10 | 0 | 0.0 | 0.0 | 0.00 | 0.00 | 0.20 | 80 | |
| 20260506152749 | 9 | 0 | 0.0 | 0.0 | 0.00 | 0.00 | 0.20 | 81 | |
| 20260506152249 | 10 | 312 | 0.0 | 1.6 | 0.00 | 0.00 | 0.20 | 81 | |
| 20260506151749 | 10 | 20 | 0.0 | 0.0 | 0.00 | 0.00 | 0.20 | 80 | |
| 20260506150748 | 10 | 0 | 0.0 | 0.0 | 0.00 | 0.00 | 0.20 | 81 | |
| 20260506150248 | 10 | 0 | 0.0 | 0.0 | 0.00 | 0.00 | 0.20 | 80 | |
| 20260506145748 | 10 | 20 | 0.0 | 1.6 | 0.00 | 0.00 | 0.20 | 80 | |
| 20260506145247 | 11 | 345 | 0.0 | 0.0 | 0.00 | 0.00 | 0.20 | 80 | |
| 20260506144747 | 10 | 0 | 0.0 | 0.0 | 0.00 | 0.00 | 0.20 | 80 | |
| 20260506143246 | 10 | 0 | 0.0 | 0.0 | 0.00 | 0.00 | 0.20 | 79 | |
| 20260506142746 | 10 | 0 | 0.0 | 0.0 | 0.00 | 0.00 | 0.20 | 79 | |
| 20260506142246 | 10 | 0 | 0.0 | 0.0 | 0.00 | 0.00 | 0.20 | 79 | |
| 20260506141746 | 11 | 325 | 0.0 | 3.2 | 0.00 | 0.00 | 0.18 | 78 | |
| 20260506141245 | 11 | 93 | 0.0 | 3.2 | 0.00 | 0.00 | 0.15 | 78 | |
| 20260506140745 | 11 | 8 | 1.6 | 4.8 | 0.00 | 0.00 | 0.15 | 79 | |
| 20260506140245 | 11 | 343 | 0.0 | 3.2 | 0.00 | 0.00 | 0.15 | 79 | |
| 20260506135746 | 11 | 23 | 1.6 | 8.0 | 0.00 | 0.00 | 0.15 | 80 | |
| 20260506135244 | 11 | 83 | 1.6 | 9.7 | 0.00 | 0.00 | 0.15 | 80 | |
| 20260506133243 | 10 | 11 | 3.2 | 8.0 | 0.00 | 0.00 | 0.15 | 82 | |
| 20260506132743 | 10 | 73 | 1.6 | 4.8 | 0.00 | 0.00 | 0.15 | 82 | |
| 20260506132242 | 10 | 15 | 1.6 | 4.8 | 0.00 | 0.00 | 0.15 | 82 | |
| 20260506131742 | 10 | 14 | 1.6 | 6.4 | 0.00 | 0.00 | 0.15 | 83 | |
| 20260506131242 | 10 | 68 | 1.6 | 6.4 | 0.00 | 0.00 | 0.15 | 83 | |
| 20260506130741 | 10 | 98 | 1.6 | 9.7 | 0.00 | 0.00 | 0.15 | 83 | |
| 20260506130241 | 10 | 72 | 3.2 | 8.0 | 0.00 | 0.00 | 0.15 | 83 | |
| 20260506125241 | 9 | 72 | 0.0 | 4.8 | 0.00 | 0.00 | 0.15 | 81 | |
| 20260506124740 | 9 | 94 | 1.6 | 6.4 | 0.00 | 0.00 | 0.15 | 82 | |
| 20260506124240 | 9 | 91 | 1.6 | 4.8 | 0.00 | 0.00 | 0.15 | 82 | |
| 20260506123240 | 8 | 77 | 3.2 | 6.4 | 0.00 | 0.00 | 0.15 | 83 | |
| 20260506122739 | 9 | 158 | 1.6 | 6.4 | 0.00 | 0.00 | 0.15 | 82 | |
| 20260506121739 | 9 | 278 | 0.0 | 6.4 | 0.00 | 0.00 | 0.15 | 83 | |
| 20260506121238 | 9 | 273 | 0.0 | 4.8 | 0.00 | 0.00 | 0.15 | 83 | |
| 20260506115738 | 8 | 290 | 0.0 | 4.8 | 0.00 | 0.00 | 0.15 | 83 | |
| 20260506115237 | 9 | 0 | 0.0 | 0.0 | 0.00 | 0.00 | 0.15 | 82 | |
| 20260506114737 | 9 | 0 | 0.0 | 0.0 | 0.00 | 0.00 | 0.15 | 82 | |
| 20260506114237 | 9 | 0 | 0.0 | 0.0 | 0.00 | 0.00 | 0.15 | 82 | |
| 20260506113736 | 9 | 0 | 0.0 | 0.0 | 0.00 | 0.00 | 0.15 | 83 | |
| 20260506113236 | 9 | 0 | 0.0 | 0.0 | 0.00 | 0.00 | 0.15 | 82 | |
| 20260506112236 | 9 | 58 | 0.0 | 3.2 | 0.00 | 0.00 | 0.15 | 82 | |
| 20260506111735 | 9 | 55 | 1.6 | 6.4 | 0.00 | 0.00 | 0.15 | 82 | |
| 20260506111235 | 9 | 0 | 0.0 | 0.0 | 0.00 | 0.00 | 0.15 | 82 | |
| 20260506110234 | 9 | 0 | 0.0 | 0.0 | 0.00 | 0.00 | 0.15 | 82 | |
| 20260506105734 | 9 | 0 | 0.0 | 0.0 | 0.00 | 0.00 | 0.15 | 83 | |
| 20260506105234 | 9 | 0 | 0.0 | 0.0 | 0.00 | 0.00 | 0.15 | 83 | |
| 20260506103233 | 9 | 0 | 0.0 | 0.0 | 0.00 | 0.00 | 0.15 | 83 | |
| 20260506102732 | 9 | 0 | 0.0 | 0.0 | 0.00 | 0.00 | 0.15 | 83 | |
| 20260506102232 | 9 | 0 | 0.0 | 0.0 | 0.00 | 0.00 | 0.15 | 83 | |
| 20260506101232 | 9 | 0 | 0.0 | 0.0 | 0.00 | 0.00 | 0.15 | 82 | |
| 20260506100231 | 9 | 0 | 0.0 | 0.0 | 0.00 | 0.00 | 0.15 | 82 | |
| 20260506095230 | 9 | 0 | 0.0 | 0.0 | 0.00 | 0.00 | 0.15 | 82 | |
| 20260506094730 | 9 | 0 | 0.0 | 0.0 | 0.00 | 0.00 | 0.13 | 82 | |
| 20260506094230 | 9 | 0 | 0.0 | 0.0 | 0.00 | 0.00 | 0.13 | 82 | |
| 20260506093229 | 9 | 0 | 0.0 | 0.0 | 0.00 | 0.00 | 0.13 | 81 | |
| 20260506092229 | 9 | 0 | 0.0 | 0.0 | 0.00 | 0.00 | 0.10 | 82 | |
| 20260506091728 | 9 | 0 | 0.0 | 0.0 | 0.00 | 0.00 | 0.10 | 81 | |
| 20260506091228 | 9 | 0 | 0.0 | 0.0 | 0.00 | 0.00 | 0.10 | 81 | |
| 20260506085227 | 9 | 0 | 0.0 | 0.0 | 0.00 | 0.00 | 0.10 | 83 | |
| 20260506084727 | 9 | 0 | 0.0 | 0.0 | 0.00 | 0.00 | 0.10 | 83 | |
| 20260506084227 | 9 | 0 | 0.0 | 0.0 | 0.00 | 0.00 | 0.10 | 83 | |
| 20260506082225 | 8 | 0 | 0.0 | 0.0 | 0.00 | 0.00 | 0.10 | 84 | |
| 20260506080725 | 8 | 0 | 0.0 | 0.0 | 0.00 | 0.00 | 0.10 | 86 | |
| 20260506080224 | 8 | 0 | 0.0 | 0.0 | 0.00 | 0.00 | 0.10 | 86 | |
| 20260506071723 | 8 | 0 | 0.0 | 0.0 | 0.00 | 0.00 | 0.03 | 86 | |
| 20260506070221 | 7 | 0 | 0.0 | 0.0 | 0.00 | 0.00 | 0.03 | 86 | |
| 20260506062219 | 7 | 0 | 0.0 | 0.0 | 0.00 | 0.00 | 0.03 | 87 | |
| 20260506061718 | 7 | 56 | 0.0 | 3.2 | 0.00 | 0.00 | 0.03 | 87 | |
| 20260506060718 | 6 | 0 | 0.0 | 0.0 | 0.00 | 0.00 | 0.03 | 87 | |
| 20260506060218 | 7 | 0 | 0.0 | 0.0 | 0.00 | 0.00 | 0.03 | 87 | |
| 20260506051215 | 6 | 129 | 0.0 | 4.8 | 0.00 | 0.00 | 0.03 | 87 | |
| 20260506050714 | 6 | 0 | 0.0 | 0.0 | 0.00 | 0.00 | 0.03 | 86 | |
| 20260506050214 | 6 | 0 | 0.0 | 0.0 | 0.00 | 0.00 | 0.03 | 85 | |
| 20260506044713 | 6 | 0 | 0.0 | 0.0 | 0.00 | 0.00 | 0.03 | 84 | |
| 20260506042712 | 6 | 0 | 0.0 | 0.0 | 0.00 | 0.00 | 0.03 | 83 | |
| 20260506042212 | 6 | 0 | 0.0 | 0.0 | 0.00 | 0.00 | 0.03 | 83 | |
| 20260506041712 | 6 | 0 | 0.0 | 0.0 | 0.00 | 0.00 | 0.03 | 83 | |
| 20260506041211 | 6 | 0 | 0.0 | 0.0 | 0.00 | 0.00 | 0.03 | 83 | |
| 20260506040711 | 6 | 0 | 0.0 | 0.0 | 0.00 | 0.00 | 0.03 | 83 | |
| 20260506035210 | 7 | 0 | 0.0 | 0.0 | 0.00 | 0.00 | 0.03 | 82 | |
| 20260506034210 | 7 | 0 | 0.0 | 0.0 | 0.00 | 0.00 | 0.03 | 83 | |
| 20260506032709 | 7 | 0 | 0.0 | 0.0 | 0.00 | 0.00 | 0.03 | 82 | |
| 20260506032208 | 7 | 0 | 0.0 | 0.0 | 0.00 | 0.00 | 0.03 | 82 | |
| 20260506031708 | 7 | 0 | 0.0 | 0.0 | 0.00 | 0.00 | 0.03 | 82 | |
| 20260506030708 | 7 | 0 | 0.0 | 0.0 | 0.00 | 0.00 | 0.03 | 82 | |
| 20260506030207 | 7 | 0 | 0.0 | 0.0 | 0.00 | 0.00 | 0.03 | 82 | |
| 20260506025707 | 7 | 0 | 0.0 | 0.0 | 0.00 | 0.00 | 0.03 | 82 | |
| 20260506025207 | 7 | 0 | 0.0 | 0.0 | 0.00 | 0.00 | 0.03 | 82 | |
| 20260506024707 | 7 | 0 | 0.0 | 0.0 | 0.00 | 0.00 | 0.03 | 82 | |
| 20260506024206 | 7 | 0 | 0.0 | 0.0 | 0.00 | 0.00 | 0.03 | 82 | |
| 20260506022705 | 8 | 0 | 0.0 | 0.0 | 0.00 | 0.00 | 0.03 | 83 | |
| 20260506022205 | 7 | 0 | 0.0 | 0.0 | 0.00 | 0.00 | 0.03 | 83 | |
| 20260506021204 | 8 | 0 | 0.0 | 0.0 | 0.00 | 0.00 | 0.03 | 83 | |
| 20260506020205 | 7 | 0 | 0.0 | 0.0 | 0.00 | 0.00 | 0.03 | 83 | |
| 20260506015704 | 8 | 0 | 0.0 | 0.0 | 0.00 | 0.00 | 0.03 | 83 | |
| 20260506015203 | 8 | 0 | 0.0 | 0.0 | 0.00 | 0.00 | 0.03 | 83 | |
| 20260506014703 | 8 | 0 | 0.0 | 0.0 | 0.00 | 0.00 | 0.03 | 83 | |
| 20260506013703 | 8 | 0 | 0.0 | 0.0 | 0.00 | 0.00 | 0.03 | 82 | |
| 20260506013202 | 8 | 0 | 0.0 | 0.0 | 0.00 | 0.00 | 0.03 | 82 | |
| 20260506012702 | 8 | 0 | 0.0 | 0.0 | 0.00 | 0.00 | 0.03 | 82 | |
| 20260506011701 | 8 | 0 | 0.0 | 0.0 | 0.00 | 0.00 | 0.03 | 83 | |
| 20260506011201 | 8 | 0 | 0.0 | 0.0 | 0.00 | 0.00 | 0.03 | 83 | |
| 20260506005700 | 8 | 0 | 0.0 | 0.0 | 0.00 | 0.00 | 0.03 | 82 | |
| 20260506004700 | 8 | 0 | 0.0 | 0.0 | 0.00 | 0.00 | 0.03 | 82 | |
| 20260506004159 | 8 | 0 | 0.0 | 0.0 | 0.00 | 0.00 | 0.03 | 82 | |
| 20260506003659 | 8 | 0 | 0.0 | 0.0 | 0.00 | 0.00 | 0.03 | 82 | |
| 20260506003159 | 8 | 0 | 0.0 | 0.0 | 0.00 | 0.00 | 0.03 | 82 | |
| 20260506002659 | 8 | 0 | 0.0 | 0.0 | 0.00 | 0.00 | 0.03 | 82 | |
| 20260506002158 | 8 | 0 | 0.0 | 0.0 | 0.00 | 0.00 | 0.03 | 82 | |
| 20260506001658 | 8 | 0 | 0.0 | 0.0 | 0.00 | 0.00 | 0.03 | 82 | |
| 20260506001158 | 9 | 0 | 0.0 | 0.0 | 0.00 | 0.00 | 0.03 | 82 | |
| 20260506000658 | 8 | 0 | 0.0 | 0.0 | 0.00 | 0.00 | 0.03 | 82 | |
| 20260506000157 | 8 | 0 | 0.0 | 0.0 | 0.00 | 0.00 | 0.03 | 82 | |
| 20260505235657 | 9 | 0 | 0.0 | 0.0 | 0.00 | 0.00 | 0.03 | 82 | |
| 20260505235157 | 9 | 0 | 0.0 | 0.0 | 0.00 | 0.00 | 0.03 | 81 | |
| 20260505234656 | 9 | 0 | 0.0 | 0.0 | 0.00 | 0.00 | 0.03 | 82 | |
| 20260505234156 | 9 | 0 | 0.0 | 0.0 | 0.00 | 0.00 | 0.03 | 82 | |
| 20260505233155 | 9 | 0 | 0.0 | 0.0 | 0.00 | 0.00 | 0.03 | 82 | |
| 20260505232655 | 9 | 0 | 0.0 | 0.0 | 0.00 | 0.00 | 0.03 | 82 |